Regional Weather Roundup
Issued by NWS Newport/Morehead, NC

Current Version | Previous Version | Text Only | Print | Product List | Glossary On
Versions: 1 2 3 4 5 6 7 8 9 10 11 12 13 14 15 16 17 18 19 20 21 22 23 24 25 26 27 28 29 30 31 32 33 34 35 36 37 38 39 40 41 42 43 44 45 46 47 48 49 50
000
ASUS42 KMHX 231625
RWRMHX
WEATHER ROUNDUP FOR EASTERN NORTH CAROLINA
NATIONAL WEATHER SERVICE NEWPORT/MOREHEAD CITY NC
1200 PM EDT THU MAR 23 2017

NOTE: "FAIR" INDICATES FEW OR NO CLOUDS BELOW 12,000 FEET
WITH NO SIGNIFICANT WEATHER AND/OR OBSTRUCTIONS TO VISIBILITY

NCZ015>017-031-032-045>047-102-103-231700-
NORTH COAST

CITY           SKY/WX    TMP DP  RH WIND       PRES   REMARKS
EDENTON        SUNNY     46  23  41 NE12      30.64
ELIZABETH CITY SUNNY     44  20  38 N14       30.65R
KITTY HAWK     NOT AVBL
MANTEO         SUNNY     41  22  46 NE16G23   30.64R

$$

NCZ045>047-081-094-103-104-231700-
CENTRAL COAST

CITY           SKY/WX    TMP DP  RH WIND       PRES   REMARKS
FRISCO         SUNNY     45  25  45 NE13G23   30.60F

$$

NCZ095-097-098-100-101-231700-
SOUTHERN COAST

CITY           SKY/WX    TMP DP  RH WIND       PRES   REMARKS
BEAUFORT       SUNNY     48  26  42 NE15G24   30.60S
CEDAR ISLAND   NOT AVBL
JACKSONVILLE   SUNNY     50  26  39 E10       30.59S
PINEY ISLAND   SUNNY    N/A N/A N/A NE15G23   30.61
WILMINGTON     SUNNY     50  27  40 E10       30.59S


$$

NCZ011>013-027>030-043-044-078>080-089-090>093-098-231700-
COASTAL PLAIN

CITY           SKY/WX    TMP DP  RH WIND       PRES   REMARKS
AHOSKIE        NOT AVBL
CLINTON        SUNNY     49  25  38 E7        30.61S
ELIZABETHTOWN  SUNNY     50  26  39 CALM      30.59F
GOLDSBORO      SUNNY     47  18  32 NE8       30.60S
GREENVILLE     SUNNY     46  19  34 E9G16     30.61F
HAVELOCK       SUNNY     48  29  47 E16       30.61R
KENANSVILLE    SUNNY     46  21  36 N6        30.60F
KINSTON        SUNNY     48  21  34 NE10      30.62S
NEW BERN       SUNNY     48  26  42 N12       30.62S
RICHLANDS      SUNNY     48  27  44 N13       30.60S
ROCKY MOUNT    SUNNY     46  17  31 NE5       30.63S
WASHINGTON     SUNNY     46  22  38 E12       30.62F
WHITEVILLE     SUNNY     51  25  37 NE6G17    30.57F

$$

AMZ130-135-150-152-154-156-158-170-250-252-270-ANZ085-086-088-633-658-670-231700-
MARINE OBSERVATIONS

STATION/POSITION TIME  TEMP    WIND        PRES    WAVE   SWELL
                       AIR SEA DIR/SP/G            HT/PER HT/PER
                 (UTC) (F)     (DEG/KT/KT) (MB)    (FT/S) (FT/S)
CHESAPEAKE LIGHT NOT AVBL
64 E VA BEACH    1550   37 50   20/ 16/ 19 1036.8    7/ 8   3/ 8
DUCK             1600   37 47   30/ 18/ 21 1037.1
2 E DUCK         1600      47                N/A     6/ 8   2/11
OREGON INLET     1600   40 48   30/ 15/ 19 1037.0
13E OREGON INLT  NOT AVBL
HATTERAS CG      1600   42 51   20/ 16/ 23 1035.8
DIAMOND BUOY     1550   45 73   30/ 17/ 25 1035.7    9/11   7/11
CAPE LOOKOUT     1600   44      40/ 22/ 26 1035.8
BEAUFORT LAB     1600   45 51   30/ 12/ 16 1035.2
30 SE NEW RVR IN 1608   48      50/ 19/ 27 1034.9
30 SE NEW RVR IN 1613      64                N/A     7/ 5   2/11
27 SE WRIGHTSVLE 1608   49 62   70/ 19/ 27 1034.1
5 SE WRIGHTSVLE  1608   47 57   60/ 14/ 23 1035.8
225 S CAPE HAT   1550   61 71   20/ 21/ 25 1030.0    9/10   7/10
41 SE CHARLESTON 1550   60 70   40/ 21/ 27 1031.3    7/ 7   2/10

$$




USA.gov is the U.S. government's official web portal to all federal, state and local government web resources and services.